| time (UTC) | temp C | wind direction | speed KPH | gust KPH | rain 1hr cm | rain 24hr cm | rain mn cm | humidity % | barometer mb |
| 20260507113039 | 5 | 235 | 8.0 | 16.1 | 0.00 | 0.00 | 0.00 | 87 | 1016.1 |
| 20260507111537 | 6 | 243 | 8.0 | 16.1 | 0.00 | 0.00 | 0.00 | 86 | 1016.1 |
| 20260507110041 | 5 | 212 | 8.0 | 14.5 | 0.00 | 0.00 | 0.00 | 86 | 1016.2 |
| 20260507104541 | 6 | 247 | 8.0 | 14.5 | 0.00 | 0.00 | 0.00 | 86 | 1016.3 |
| 20260507103046 | 6 | 220 | 6.4 | 14.5 | 0.00 | 0.00 | 0.00 | 86 | 1016.1 |
| 20260507101531 | 6 | 250 | 8.0 | 14.5 | 0.00 | 0.00 | 0.00 | 86 | 1016.3 |
| 20260507100030 | 6 | 247 | 8.0 | 16.1 | 0.00 | 0.00 | 0.00 | 85 | 1016.3 |
| 20260507094531 | 6 | 219 | 6.4 | 17.7 | 0.00 | 0.00 | 0.00 | 84 | 1016.5 |
| 20260507093024 | 6 | 250 | 8.0 | 16.1 | 0.00 | 0.00 | 0.00 | 83 | 1016.5 |
| 20260507091529 | 6 | 211 | 9.7 | 17.7 | 0.00 | 0.00 | 0.00 | 82 | 1016.6 |
| 20260507090018 | 6 | 240 | 8.0 | 20.9 | 0.00 | 0.00 | 0.00 | 81 | 1016.8 |
| 20260507084534 | 7 | 252 | 8.0 | 17.7 | 0.00 | 0.00 | 0.00 | 81 | 1017.0 |
| 20260507083014 | 7 | 200 | 8.0 | 14.5 | 0.00 | 0.00 | 0.00 | 80 | 1017.0 |
| 20260507081513 | 7 | 244 | 9.7 | 16.1 | 0.00 | 0.00 | 0.00 | 80 | 1017.2 |
| 20260507080009 | 7 | 213 | 9.7 | 17.7 | 0.00 | 0.00 | 0.00 | 79 | 1017.4 |
| 20260507074508 | 7 | 259 | 8.0 | 17.7 | 0.00 | 0.00 | 0.00 | 79 | 1017.7 |
| 20260507073004 | 7 | 231 | 8.0 | 16.1 | 0.00 | 0.00 | 0.00 | 78 | 1017.8 |
| 20260507071501 | 7 | 227 | 8.0 | 17.7 | 0.00 | 0.00 | 0.00 | 78 | 1018.1 |
| 20260507070107 | 7 | 234 | 8.0 | 20.9 | 0.00 | 0.00 | 0.00 | 76 | 1018.2 |
| 20260507064559 | 7 | 244 | 9.7 | 16.1 | 0.00 | 0.00 | 0.00 | 75 | 1018.4 |
| 20260507063051 | 8 | 243 | 8.0 | 16.1 | 0.00 | 0.00 | 0.00 | 74 | 1018.6 |
| 20260507061550 | 8 | 220 | 9.7 | 16.1 | 0.00 | 0.00 | 0.00 | 72 | 1018.7 |
| 20260507060047 | 8 | 222 | 9.7 | 20.9 | 0.00 | 0.00 | 0.00 | 71 | 1018.7 |
| 20260507054606 | 8 | 242 | 9.7 | 17.7 | 0.00 | 0.00 | 0.00 | 70 | 1018.7 |
| 20260507053053 | 8 | 223 | 9.7 | 17.7 | 0.00 | 0.00 | 0.00 | 68 | 1018.8 |
| 20260507051547 | 8 | 249 | 8.0 | 14.5 | 0.00 | 0.00 | 0.00 | 65 | 1018.8 |
| 20260507050046 | 8 | 222 | 8.0 | 16.1 | 0.00 | 0.00 | 0.00 | 63 | 1018.8 |
| 20260507044540 | 9 | 245 | 8.0 | 14.5 | 0.00 | 0.00 | 0.00 | 62 | 1018.9 |
| 20260507043035 | 9 | 252 | 4.8 | 11.3 | 0.00 | 0.00 | 0.00 | 60 | 1019.1 |
| 20260507041535 | 9 | 234 | 6.4 | 16.1 | 0.00 | 0.00 | 0.00 | 58 | 1019.2 |
| 20260507040039 | 9 | 241 | 6.4 | 12.9 | 0.00 | 0.00 | 0.00 | 57 | 1019.2 |
| 20260507034533 | 9 | 231 | 4.8 | 11.3 | 0.00 | 0.00 | 0.00 | 54 | 1019.4 |
| 20260507033033 | 9 | 236 | 3.2 | 8.0 | 0.00 | 0.00 | 0.00 | 51 | 1019.4 |
| 20260507031537 | 10 | 239 | 3.2 | 6.4 | 0.00 | 0.00 | 0.00 | 49 | 1019.4 |
| 20260507030032 | 10 | 227 | 4.8 | 8.0 | 0.00 | 0.00 | 0.00 | 48 | 1019.5 |
| 20260507024632 | 10 | 226 | 3.2 | 6.4 | 0.00 | 0.00 | 0.00 | 47 | 1019.3 |
| 20260507023030 | 10 | 234 | 0.0 | 1.6 | 0.00 | 0.00 | 0.00 | 48 | 1019.2 |
| 20260507021535 | 10 | 242 | 0.0 | 1.6 | 0.00 | 0.00 | 0.00 | 45 | 1019.1 |
| 20260507020031 | 11 | 203 | 0.0 | 3.2 | 0.00 | 0.00 | 0.00 | 44 | 1018.9 |
| 20260507014531 | 11 | 225 | 0.0 | 1.6 | 0.00 | 0.00 | 0.00 | 42 | 1018.9 |
| 20260507013029 | 12 | 225 | 0.0 | 1.6 | 0.00 | 0.00 | 0.00 | 38 | 1018.8 |
| 20260507011528 | 13 | 283 | 0.0 | 3.2 | 0.00 | 0.00 | 0.00 | 37 | 1018.8 |
| 20260507010037 | 13 | 274 | 0.0 | 4.8 | 0.00 | 0.00 | 0.00 | 35 | 1018.9 |
| 20260507004527 | 14 | 285 | 1.6 | 9.7 | 0.00 | 0.00 | 0.00 | 34 | 1018.8 |
| 20260507003026 | 14 | 297 | 3.2 | 8.0 | 0.00 | 0.00 | 0.00 | 32 | 1018.9 |
| 20260507001533 | 14 | 256 | 3.2 | 8.0 | 0.00 | 0.00 | 0.00 | 33 | 1019.1 |
| 20260507000031 | 14 | 254 | 3.2 | 11.3 | 0.00 | 0.00 | 0.00 | 34 | 1019.3 |
| 20260506234522 | 15 | 293 | 3.2 | 9.7 | 0.00 | 0.00 | 0.00 | 32 | 1019.3 |
| 20260506233022 | 15 | 7 | 1.6 | 12.9 | 0.00 | 0.00 | 0.00 | 33 | 1019.4 |
| 20260506231521 | 15 | 248 | 6.4 | 17.7 | 0.00 | 0.00 | 0.00 | 32 | 1019.5 |
| 20260506230022 | 15 | 240 | 4.8 | 16.1 | 0.00 | 0.00 | 0.00 | 34 | 1019.6 |
| 20260506224520 | 15 | 263 | 3.2 | 14.5 | 0.00 | 0.00 | 0.00 | 32 | 1019.8 |
| 20260506223017 | 15 | 232 | 6.4 | 30.6 | 0.00 | 0.00 | 0.00 | 33 | 1019.8 |
| 20260506221517 | 15 | 269 | 4.8 | 14.5 | 0.00 | 0.00 | 0.00 | 35 | 1019.9 |
| 20260506220017 | 15 | 278 | 6.4 | 16.1 | 0.00 | 0.00 | 0.00 | 33 | 1019.9 |
| 20260506214516 | 14 | 290 | 3.2 | 9.7 | 0.00 | 0.00 | 0.00 | 34 | 1020.1 |
| 20260506213015 | 14 | 274 | 6.4 | 16.1 | 0.00 | 0.00 | 0.00 | 32 | 1020.5 |
| 20260506211526 | 15 | 242 | 4.8 | 24.1 | 0.00 | 0.00 | 0.00 | 33 | 1020.5 |
| 20260506210024 | 15 | 301 | 9.7 | 17.7 | 0.00 | 0.00 | 0.00 | 32 | 1020.6 |
| 20260506204516 | 14 | 302 | 4.8 | 9.7 | 0.00 | 0.00 | 0.00 | 34 | 1020.9 |
| 20260506203011 | 14 | 290 | 9.7 | 20.9 | 0.00 | 0.00 | 0.00 | 33 | 1021.1 |
| 20260506201511 | 15 | 245 | 9.7 | 22.5 | 0.00 | 0.00 | 0.00 | 34 | 1021.1 |
| 20260506200011 | 15 | 27 | 8.0 | 24.1 | 0.00 | 0.00 | 0.00 | 36 | 1021.4 |
| 20260506194507 | 13 | 257 | 1.6 | 11.3 | 0.00 | 0.00 | 0.00 | 34 | 1021.6 |
| 20260506193006 | 13 | 312 | 3.2 | 16.1 | 0.00 | 0.00 | 0.00 | 34 | 1021.6 |
| 20260506191506 | 14 | 280 | 6.4 | 17.7 | 0.00 | 0.00 | 0.00 | 35 | 1021.6 |
| 20260506190006 | 13 | 293 | 4.8 | 14.5 | 0.00 | 0.00 | 0.00 | 35 | 1021.7 |
| 20260506184504 | 13 | 268 | 1.6 | 19.3 | 0.00 | 0.00 | 0.00 | 34 | 1021.8 |
| 20260506183003 | 13 | 290 | 1.6 | 14.5 | 0.00 | 0.00 | 0.00 | 34 | 1021.9 |
| 20260506181504 | 13 | 331 | 4.8 | 14.5 | 0.00 | 0.00 | 0.00 | 33 | 1022.1 |
| 20260506180002 | 14 | 47 | 3.2 | 17.7 | 0.00 | 0.00 | 0.00 | 38 | 1022.2 |
| 20260506174600 | 13 | 299 | 3.2 | 14.5 | 0.00 | 0.00 | 0.00 | 35 | 1022.4 |
| 20260506173126 | 13 | 338 | 1.6 | 9.7 | 0.00 | 0.00 | 0.00 | 34 | 1022.5 |
| 20260506171604 | 12 | 259 | 0.0 | 12.9 | 0.00 | 0.00 | 0.00 | 35 | 1022.6 |
| 20260506170106 | 12 | 328 | 3.2 | 9.7 | 0.00 | 0.00 | 0.00 | 38 | 1022.8 |
| 20260506164554 | 12 | 270 | 6.4 | 16.1 | 0.00 | 0.00 | 0.00 | 37 | 1022.9 |
| 20260506163057 | 12 | 323 | 3.2 | 12.9 | 0.00 | 0.00 | 0.00 | 40 | 1022.9 |
| 20260506161550 | 11 | 294 | 1.6 | 6.4 | 0.00 | 0.00 | 0.00 | 41 | 1023.1 |
| 20260506160049 | 11 | 332 | 1.6 | 9.7 | 0.00 | 0.00 | 0.00 | 37 | 1023.0 |
| 20260506154605 | 11 | 79 | 1.6 | 12.9 | 0.00 | 0.00 | 0.00 | 39 | 1022.8 |
| 20260506153044 | 10 | 290 | 1.6 | 8.0 | 0.00 | 0.00 | 0.00 | 38 | 1023.1 |
| 20260506151543 | 10 | 323 | 1.6 | 8.0 | 0.00 | 0.00 | 0.00 | 40 | 1022.9 |
| 20260506150039 | 10 | 279 | 0.0 | 11.3 | 0.00 | 0.00 | 0.00 | 43 | 1023.0 |
| 20260506144543 | 9 | 202 | 0.0 | 6.4 | 0.00 | 0.00 | 0.00 | 46 | 1022.9 |
| 20260506143036 | 9 | 283 | 0.0 | 4.8 | 0.00 | 0.00 | 0.00 | 45 | 1022.9 |
| 20260506141533 | 8 | 65 | 1.6 | 4.8 | 0.00 | 0.00 | 0.00 | 48 | 1022.8 |
| 20260506140035 | 8 | 51 | 3.2 | 6.4 | 0.00 | 0.00 | 0.00 | 51 | 1022.9 |
| 20260506134531 | 8 | 96 | 1.6 | 4.8 | 0.00 | 0.00 | 0.00 | 49 | 1022.7 |
| 20260506133035 | 8 | 45 | 1.6 | 8.0 | 0.00 | 0.00 | 0.00 | 53 | 1022.5 |
| 20260506131529 | 8 | 295 | 0.0 | 3.2 | 0.00 | 0.00 | 0.00 | 56 | 1022.3 |
| 20260506130026 | 7 | 308 | 0.0 | 1.6 | 0.00 | 0.00 | 0.00 | 58 | 1022.3 |
| 20260506124525 | 6 | 297 | 0.0 | 3.2 | 0.00 | 0.00 | 0.00 | 61 | 1022.2 |
| 20260506123022 | 5 | 297 | 0.0 | 1.6 | 0.00 | 0.00 | 0.00 | 62 | 1021.8 |
| 20260506121520 | -17 | 0.0 | 0.0 | 0.00 | 0.00 | 0.00 | 1021.5 | ||
| 20260506120017 | -17 | 0.0 | 0.0 | 0.00 | 0.00 | 0.00 | 1021.2 | ||
| 20260506114511 | -17 | 0.0 | 0.0 | 0.00 | 0.00 | 0.00 | 1021.1 |